Regional Weather Roundup
Issued by NWS Albany, NY

Home | Current Version | Previous Version | Text Only | Print | Product List | Glossary On
Versions: 1 2 3 4 5 6 7 8 9 10 11 12 13 14 15 16 17 18 19 20 21 22 23 24 25 26 27 28 29 30 31 32 33 34 35 36 37 38 39 40 41 42 43 44 45 46 47 48 49 50
583
ASUS41 KALY 290410
RWRALY

NEW YORK STATE HOURLY WEATHER ROUNDUP
NATIONAL WEATHER SERVICE ALBANY NY
1200 AM EDT SUN MAY 29 2016

NOTE: "FAIR" INDICATES FEW OR NO CLOUDS BELOW 12,000 FEET WITH NO
SIGNIFICANT WEATHER AND/OR NO OBSTRUCTIONS TO VISIBILITY.

NYZ032-033-038>043-046>054-057>066-NYZ062>081-082-084-290500-
EAST


CITY           SKY/WX    TMP DP  RH WIND       PRES   REMARKS
ALBANY         PTCLDY    79  66  64 S6        30.09R
GLENS FALLS    PTCLDY    68  64  87 NW3       30.09R
POUGHKEEPSIE   CLEAR     73  67  81 CALM      30.10S
NEWBURGH       CLEAR     73  70  88 CALM      30.13S
MONTGOMERY     CLOUDY    71  68  90 CALM      30.12R
WHITE PLAINS   PTCLDY    70  64  81 CALM      30.13S
ISLIP          PTCLDY    69  51  52 SW10      30.14S
NEW YORK CITY  PTCLDY    80  66  62 SW10      30.11S
CENTRAL PARK   CLEAR     78  62  57 VRB5      30.15R
$$

NYZ005>009-017-018-044>046-055-056-290500-
CENTRAL


CITY           SKY/WX    TMP DP  RH WIND       PRES   REMARKS
FULTON         CLOUDY    73  67  81 CALM      30.07S
SYRACUSE       CLOUDY    74  66  76 S5        30.07S
ROME           CLEAR     69  64  84 E3        30.09F
ELMIRA         MOCLDY    69  64  84 W3        30.12R
BINGHAMTON     CLOUDY    75  64  68 CALM      30.15S
MONTICELLO     CLOUDY    66  64  94 CALM      30.18S
$$

NYZ026>034-041>043-087-290500-
NORTH


CITY           SKY/WX    TMP DP  RH WIND       PRES   REMARKS
WATERTOWN      CLEAR     65  62  90 CALM      30.06F
FORT DRUM      NOT AVBL
MASSENA        CLEAR     67  60  78 NE5       30.08R
SARANAC LAKE   CLEAR     59  56  89 CALM      30.14S FOG
PLATTSBURGH    PTCLDY    66  61  84 CALM      30.08R
$$

NYZ001>004-010>016-019>021-085-290500-
WEST


CITY           SKY/WX    TMP DP  RH WIND       PRES   REMARKS
NIAGARA FALLS  PTCLDY    75  65  70 S6        30.07R
BUFFALO        CLOUDY    73  66  78 S5        30.08S
DUNKIRK        PTCLDY    78  62  57 S6        30.07R
JAMESTOWN      CLOUDY    66  63  88 S5        30.14S
WELLSVILLE     CLEAR     67  63  87 W7        30.20S
ROCHESTER      CLOUDY    76  66  71 SW6       30.08S
PENN YAN       CLOUDY    71  65  81 S12       30.11S
$$

             KEY
       WCI = WIND CHILL INDEX
       VSB = VISIBILITY
       HX  = HEAT INDEX
$$




USA.gov is the U.S. government's official web portal to all federal, state and local government web resources and services.